Weather History for Glendive, MT

Change the Weather History Date:

Wednesday, May 22, 2013

  Actual Average Record
Temperature  
Mean Temperature 56 °F -  
Max Temperature 66 °F 66 °F 87 °F (2006)
Min Temperature 46 °F 42 °F 39 °F (2004)
Degree Days  
Heating Degree Days 9    
Growing Degree Days 6 (Base 50)    
Moisture  
Dew Point 39 °F    
Average Humidity 57    
Maximum Humidity 87    
Minimum Humidity 26    
Precipitation  
Precipitation 0.00 in - - ()
Sea Level Pressure  
Sea Level Pressure 30.08 in    
Wind  
Wind Speed 10 mph (ENE)    
Max Wind Speed 25 mph    
Max Gust Speed 30 mph    
Visibility 10 miles    
Events      
Averages and records for this station are not official NWS values.
T = Trace of Precipitation, MM = Missing Value Source: NWS Daily Summary

Daily Weather History Graph

Daily Weather History Graph

Search for Another Location

Airport:

Trip Planner

Search our weather history database for the weather conditions in past years. The results will help you decide how hot, cold, wet, or windy it might be!

Date:

Astronomy

May. 22, 2013 Rise Set
Actual Time 5:15 AM MDT 8:37 PM MDT
Civil Twilight 4:38 AM MDT 9:14 PM MDT
Nautical Twilight 3:48 AM MDT 10:04 PM MDT
Astronomical Twilight 2:46 AM MDT 11:07 PM MDT
Moon 5:53 PM MDT (5/22) 3:32 AM MDT (5/22)
Length of Visible Light 16h 36m
Length of Day
15h 21m
Waxing Gibbous, 92% of the Moon is Illuminated
May 22
Waxing Gibbous
May 24
Full
May 31
Last Quarter
Jun 8
New
Jun 16
First Quarter

Hourly Weather History & Observations

Time (MDT) Temp. Windchill Dew Point Humidity Pressure Visibility Wind Dir Wind Speed Gust Speed Precip Events Conditions
12:35 AM 48.2 °F - 44.6 °F 87% 30.05 in 10.0 mi East 5.8 mph - N/A   Overcast
12:55 AM 48.2 °F - 44.6 °F 87% 30.05 in 10.0 mi ENE 5.8 mph - N/A   Overcast
1:15 AM 48.2 °F - 44.6 °F 87% 30.05 in 10.0 mi ENE 6.9 mph - N/A   Overcast
1:35 AM 48.2 °F - 44.6 °F 87% 30.05 in 10.0 mi NE 5.8 mph - N/A   Overcast
2:15 AM 48.2 °F - 44.6 °F 87% 30.04 in 10.0 mi NE 5.8 mph - N/A   Overcast
2:35 AM 48.2 °F - 44.6 °F 87% 30.04 in 10.0 mi ENE 5.8 mph - N/A   Overcast
2:55 AM 48.2 °F - 42.8 °F 82% 30.04 in 10.0 mi ENE 5.8 mph - N/A   Overcast
3:15 AM 48.2 °F - 42.8 °F 82% 30.05 in 10.0 mi ENE 4.6 mph - N/A   Overcast
3:55 AM 48.2 °F - 42.8 °F 82% 30.05 in 10.0 mi NE 6.9 mph - N/A   Overcast
4:15 AM 46.4 °F 44.3 °F 42.8 °F 87% 30.05 in 10.0 mi NNE 4.6 mph - N/A   Mostly Cloudy
4:35 AM 46.4 °F 43.5 °F 42.8 °F 87% 30.05 in 10.0 mi NE 5.8 mph - N/A   Overcast
4:55 AM 46.4 °F 43.5 °F 42.8 °F 87% 30.05 in 10.0 mi NNE 5.8 mph - N/A   Overcast
5:15 AM 46.4 °F 44.3 °F 42.8 °F 87% 30.05 in 10.0 mi NNE 4.6 mph - N/A   Overcast
5:35 AM 46.4 °F 42.9 °F 42.8 °F 87% 30.05 in 10.0 mi NE 6.9 mph - N/A   Overcast
5:55 AM 48.2 °F - 42.8 °F 82% 30.05 in 10.0 mi ENE 6.9 mph - N/A   Overcast
6:15 AM 48.2 °F - 42.8 °F 82% 30.06 in 10.0 mi NE 5.8 mph - N/A   Scattered Clouds
6:35 AM 48.2 °F - 42.8 °F 82% 30.06 in 10.0 mi NE 3.5 mph - N/A   Clear
6:55 AM 48.2 °F - 42.8 °F 82% 30.07 in 10.0 mi NE 5.8 mph - N/A   Clear
7:15 AM 48.2 °F - 42.8 °F 82% 30.07 in 10.0 mi NE 6.9 mph - N/A   Clear
7:35 AM 51.8 °F - 42.8 °F 71% 30.08 in 10.0 mi ENE 8.1 mph - N/A   Clear
7:55 AM 51.8 °F - 42.8 °F 71% 30.08 in 10.0 mi East 9.2 mph - N/A   Clear
8:15 AM 53.6 °F - 41.0 °F 62% 30.09 in 10.0 mi East 9.2 mph - N/A   Clear
8:35 AM 53.6 °F - 39.2 °F 58% 30.09 in 10.0 mi East 9.2 mph - N/A   Scattered Clouds
8:55 AM 55.4 °F - 42.8 °F 63% 30.09 in 10.0 mi East 11.5 mph - N/A   Mostly Cloudy
9:15 AM 55.4 °F - 41.0 °F 58% 30.09 in 10.0 mi East 11.5 mph 16.1 mph N/A   Partly Cloudy
9:35 AM 55.4 °F - 42.8 °F 63% 30.09 in 10.0 mi ENE 10.4 mph - N/A   Clear
9:55 AM 55.4 °F - 42.8 °F 63% 30.09 in 10.0 mi ENE 10.4 mph 19.6 mph N/A   Clear
10:15 AM 55.4 °F - 42.8 °F 63% 30.09 in 10.0 mi NE 10.4 mph 16.1 mph N/A   Partly Cloudy
10:35 AM 57.2 °F - 42.8 °F 59% 30.09 in 10.0 mi NE 11.5 mph - N/A   Partly Cloudy
10:55 AM 57.2 °F - 42.8 °F 59% 30.09 in 10.0 mi East 13.8 mph - N/A   Scattered Clouds
11:15 AM 60.8 °F - 42.8 °F 52% 30.09 in 10.0 mi ENE 13.8 mph - N/A   Scattered Clouds
11:35 AM 60.8 °F - 42.8 °F 52% 30.08 in 10.0 mi ENE 10.4 mph - N/A   Scattered Clouds
11:55 AM 60.8 °F - 42.8 °F 52% 30.08 in 10.0 mi NE 6.9 mph - N/A   Scattered Clouds
12:15 PM 62.6 °F - 39.2 °F 42% 30.08 in 10.0 mi East 12.7 mph 20.7 mph N/A   Partly Cloudy
12:35 PM 62.6 °F - 37.4 °F 39% 30.08 in 10.0 mi East 16.1 mph 23.0 mph N/A   Clear
12:55 PM 64.4 °F - 39.2 °F 40% 30.08 in 10.0 mi East 11.5 mph 23.0 mph N/A   Clear
1:15 PM 64.4 °F - 39.2 °F 40% 30.08 in 10.0 mi East 17.3 mph 21.9 mph N/A   Partly Cloudy
1:35 PM 64.4 °F - 35.6 °F 34% 30.08 in 10.0 mi East 19.6 mph 26.5 mph N/A   Clear
1:55 PM 64.4 °F - 32.0 °F 30% 30.08 in 10.0 mi East 19.6 mph 25.3 mph N/A   Clear
2:15 PM 66.2 °F - 32.0 °F 28% 30.08 in 10.0 mi East 18.4 mph 24.2 mph N/A   Clear
2:35 PM 66.2 °F - 33.8 °F 30% 30.08 in 10.0 mi East 21.9 mph 28.8 mph N/A   Clear
2:55 PM 66.2 °F - 33.8 °F 30% 30.08 in 10.0 mi East 16.1 mph 23.0 mph N/A   Clear
3:15 PM 66.2 °F - 33.8 °F 30% 30.07 in 10.0 mi ESE 21.9 mph 27.6 mph N/A   Clear
3:35 PM 66.2 °F - 32.0 °F 28% 30.07 in 10.0 mi ESE 17.3 mph 29.9 mph N/A   Clear
3:55 PM 66.2 °F - 30.2 °F 26% 30.07 in 10.0 mi East 21.9 mph 26.5 mph N/A   Clear
4:15 PM 66.2 °F - 32.0 °F 28% 30.07 in 10.0 mi East 19.6 mph 28.8 mph N/A   Clear
4:55 PM 66.2 °F - 30.2 °F 26% 30.07 in 10.0 mi East 20.7 mph 26.5 mph N/A   Clear
5:15 PM 66.2 °F - 33.8 °F 30% 30.07 in 10.0 mi East 23.0 mph 29.9 mph N/A   Clear
6:15 PM 66.2 °F - 30.2 °F 26% 30.07 in 10.0 mi ESE 25.3 mph 28.8 mph N/A   Clear
6:35 PM 64.4 °F - 30.2 °F 28% 30.07 in 10.0 mi East 20.7 mph 27.6 mph N/A   Clear
6:55 PM 64.4 °F - 30.2 °F 28% 30.08 in 10.0 mi East 24.2 mph - N/A   Clear
7:15 PM 64.4 °F - 30.2 °F 28% 30.08 in 10.0 mi East 21.9 mph 26.5 mph N/A   Clear
7:35 PM 62.6 °F - 30.2 °F 30% 30.08 in 10.0 mi East 19.6 mph 27.6 mph N/A   Clear
8:55 PM 57.2 °F - 30.2 °F 36% 30.11 in 10.0 mi East 15.0 mph - N/A   Clear
9:35 PM 55.4 °F - 32.0 °F 41% 30.12 in 10.0 mi East 13.8 mph - N/A   Clear
9:55 PM 55.4 °F - 32.0 °F 41% 30.12 in 10.0 mi East 13.8 mph - N/A   Clear
10:35 PM 53.6 °F - 33.8 °F 47% 30.14 in 10.0 mi East 13.8 mph - N/A   Clear
10:55 PM 51.8 °F - 33.8 °F 50% 30.14 in 10.0 mi East 13.8 mph - N/A   Clear
11:15 PM 51.8 °F - 33.8 °F 50% 30.15 in 10.0 mi East 11.5 mph - N/A   Clear
11:55 PM 48.2 °F - 33.8 °F 58% 30.16 in 10.0 mi East 8.1 mph - N/A   Clear